GW5446 Weather Reports


time (UTC)temp
C
wind
direction
speed
KPH
gust
KPH
rain 1hr
cm
rain 24hr
cm
rain mn
cm
humidity
%
barometer
mb
20260507135010 7 0 0.0 0.0 0.00 0.03 0.00 91 1013.5
20260507134530 7 0 0.0 0.0 0.00 0.03 0.00 93 1013.5
20260507134012 6 0 0.0 0.0 0.00 0.03 0.00 94 1013.5
20260507133510 6 0 0.0 0.0 0.00 0.03 0.00 93 1013.4
20260507133030 6 0 0.0 0.0 0.00 0.03 0.00 93 1013.3
20260507132513 6 0 0.0 0.0 0.00 0.03 0.00 94 1013.3
20260507132010 5 0 0.0 0.0 0.00 0.03 0.00 93 1013.3
20260507131527 5 0 0.0 0.0 0.00 0.03 0.00 92 1013.2
20260507131012 5 0 0.0 0.0 0.00 0.03 0.00 92 1013.2
20260507130510 6 0 0.0 0.0 0.00 0.03 0.00 91 1013.2
20260507130030 6 0 0.0 0.0 0.00 0.03 0.00 91 1013.2
20260507125514 6 0 0.0 0.0 0.00 0.03 0.00 92 1013.1
20260507125009 6 0 0.0 0.0 0.00 0.03 0.00 91 1013.0
20260507124528 6 0 0.0 0.0 0.00 0.03 0.00 92 1013.1
20260507124011 6 0 0.0 0.0 0.00 0.03 0.00 93 1013.0
20260507123510 5 0 0.0 0.0 0.00 0.03 0.00 92 1012.9
20260507123032 5 0 0.0 0.0 0.00 0.03 0.00 92 1012.8
20260507122510 6 0 0.0 0.0 0.00 0.03 0.00 92 1012.8
20260507122009 5 0 0.0 0.0 0.00 0.03 0.00 91 1012.6
20260507121537 6 0 0.0 1.6 0.00 0.03 0.00 88 1012.5
20260507121012 6 0 0.0 1.6 0.00 0.03 0.00 90 1012.4
20260507120509 6 307 0.0 1.6 0.00 0.03 0.00 90 1012.4
20260507120030 6 0 0.0 4.8 0.00 0.03 0.00 90 1012.4
20260507115510 6 0 0.0 4.8 0.00 0.03 0.00 88 1012.4
20260507115010 7 311 1.6 4.8 0.00 0.03 0.00 89 1012.3
20260507114530 7 272 1.6 3.2 0.00 0.03 0.00 89 1012.3
20260507114010 6 0 0.0 0.0 0.00 0.03 0.00 90 1012.3
20260507113509 6 0 0.0 0.0 0.00 0.03 0.00 92 1012.3
20260507113034 6 0 0.0 0.0 0.00 0.03 0.00 90 1012.3
20260507112511 6 0 0.0 0.0 0.00 0.03 0.00 88 1012.3
20260507112017 6 0 0.0 0.0 0.00 0.03 0.00 89 1012.2
20260507111530 7 0 0.0 0.0 0.00 0.03 0.00 86 1012.2
20260507111011 7 0 0.0 0.0 0.00 0.03 0.00 88 1012.2
20260507110516 7 0 0.0 0.0 0.00 0.03 0.00 88 1012.1
20260507110031 7 0 0.0 4.8 0.00 0.03 0.00 86 1011.9
20260507105513 7 0 0.0 8.0 0.00 0.03 0.00 86 1011.9
20260507105010 8 0 3.2 8.0 0.00 0.03 0.00 85 1011.8
20260507104528 8 338 3.2 6.4 0.00 0.03 0.00 85 1011.7
20260507104008 8 340 1.6 3.2 0.00 0.03 0.00 85 1011.7
20260507103511 8 294 1.6 8.0 0.00 0.03 0.00 86 1011.7
20260507103027 8 338 1.6 8.0 0.00 0.03 0.00 86 1011.8
20260507102512 7 285 1.6 6.4 0.00 0.03 0.00 88 1011.7
20260507102011 7 293 1.6 6.4 0.00 0.03 0.00 86 1011.7
20260507101534 7 285 0.0 6.4 0.00 0.03 0.00 87 1011.7
20260507101011 7 0 0.0 3.2 0.00 0.03 0.00 87 1011.7
20260507100511 7 286 1.6 3.2 0.00 0.03 0.00 87 1011.6
20260507100034 7 295 1.6 4.8 0.00 0.03 0.00 87 1011.5
20260507095511 7 0 3.2 4.8 0.00 0.03 0.00 87 1011.5
20260507095013 7 0 0.0 0.0 0.00 0.03 0.00 88 1011.4
20260507094530 7 0 0.0 4.8 0.00 0.03 0.00 88 1011.5
20260507094010 7 0 1.6 4.8 0.00 0.03 0.00 90 1011.4
20260507093511 6 0 0.0 0.0 0.00 0.03 0.00 91 1011.4
20260507093038 7 0 0.0 0.0 0.00 0.03 0.00 89 1011.3
20260507092510 7 0 0.0 0.0 0.00 0.03 0.00 87 1011.2
20260507092010 7 0 0.0 0.0 0.00 0.03 0.00 88 1011.1
20260507091528 7 0 0.0 3.2 0.00 0.03 0.00 88 1011.1
20260507091009 7 0 0.0 3.2 0.00 0.03 0.00 88 1011.0
20260507090511 8 0 0.0 3.2 0.00 0.03 0.00 87 1011.1
20260507090032 8 283 1.6 4.8 0.00 0.03 0.00 88 1011.0
20260507085510 8 297 1.6 4.8 0.00 0.03 0.00 89 1010.9
20260507085012 7 0 0.0 0.0 0.00 0.03 0.00 90 1010.9
20260507084528 7 0 0.0 0.0 0.00 0.03 0.00 90 1010.8
20260507084107 7 0 0.0 0.0 0.00 0.03 0.00 90 1010.8
20260507083511 7 0 0.0 8.0 0.00 0.03 0.00 90 1010.7
20260507083037 7 0 0.0 8.0 0.00 0.03 0.00 91 1010.7
20260507082509 8 89 1.6 8.0 0.00 0.03 0.00 87 1010.5
20260507082009 8 0 0.0 3.2 0.00 0.03 0.00 88 1010.6
20260507081531 8 0 0.0 3.2 0.00 0.03 0.00 87 1010.6
20260507081010 8 0 0.0 3.2 0.00 0.03 0.00 87 1010.7
20260507080511 8 0 0.0 3.2 0.00 0.03 0.00 87 1010.6
20260507080030 8 304 0.0 1.6 0.00 0.03 0.00 86 1010.7
20260507075509 9 0 0.0 0.0 0.00 0.03 0.00 87 1010.7
20260507075011 8 0 0.0 0.0 0.00 0.03 0.00 87 1010.6
20260507074529 8 0 0.0 4.8 0.00 0.03 0.00 89 1010.6
20260507074009 8 0 0.0 4.8 0.00 0.03 0.00 88 1010.5
20260507073512 9 295 3.2 4.8 0.00 0.03 0.00 88 1010.4
20260507073030 9 0 0.0 4.8 0.00 0.03 0.00 89 1010.5
20260507072509 9 0 0.0 4.8 0.00 0.03 0.00 88 1010.5
20260507072012 9 269 1.6 3.2 0.00 0.03 0.00 88 1010.4
20260507071535 10 0 0.0 3.2 0.00 0.03 0.00 88 1010.4
20260507071017 9 0 0.0 3.2 0.00 0.03 0.00 89 1010.4
20260507070510 10 290 1.6 3.2 0.00 0.03 0.00 89 1010.4
20260507070031 10 0 0.0 0.0 0.00 0.03 0.00 88 1010.3
20260507065512 10 0 0.0 0.0 0.00 0.03 0.03 88 1010.3
20260507065010 10 0 0.0 3.2 0.00 0.03 0.03 89 1010.4
20260507064529 10 0 0.0 3.2 0.00 0.03 0.03 89 1010.3
20260507064012 10 346 0.0 3.2 0.00 0.03 0.03 89 1010.4
20260507063512 10 0 0.0 0.0 0.00 0.03 0.03 90 1010.4
20260507063032 10 0 0.0 0.0 0.00 0.03 0.03 90 1010.3
20260507062510 10 0 0.0 0.0 0.00 0.03 0.03 90 1010.3
20260507062012 11 0 0.0 0.0 0.00 0.03 0.03 90 1010.2
20260507061528 11 0 0.0 0.0 0.00 0.03 0.03 90 1010.1
20260507061010 11 0 0.0 0.0 0.00 0.03 0.03 89 1010.2
20260507060510 11 0 0.0 3.2 0.00 0.03 0.03 89 1010.1
20260507060030 11 0 0.0 3.2 0.00 0.03 0.03 89 1010.1
20260507055509 11 349 1.6 3.2 0.00 0.03 0.03 90 1010.0
20260507055009 11 345 0.0 3.2 0.00 0.03 0.03 90 1010.0
20260507054528 11 0 0.0 4.8 0.00 0.03 0.03 89 1009.8
20260507054012 11 0 0.0 4.8 0.00 0.03 0.03 89 1009.7
20260507053510 11 195 1.6 4.8 0.00 0.03 0.03 90 1009.5
20260507053028 11 0 0.0 8.0 0.00 0.03 0.03 90 1009.6
20260507052511 11 247 4.8 8.0 0.00 0.03 0.03 91 1009.5
20260507052010 11 0 0.0 0.0 0.00 0.03 0.03 91 1009.5
20260507051529 11 0 0.0 3.2 0.03 0.03 0.03 90 1009.4
20260507051013 11 0 0.0 3.2 0.03 0.03 0.03 90 1009.2
20260507050511 11 0 0.0 1.6 0.03 0.03 0.03 90 1009.1
20260507050030 12 0 0.0 3.2 0.03 0.03 0.03 91 1009.2
20260507045510 12 359 1.6 3.2 0.03 0.03 0.03 90 1009.4
20260507045009 12 0 0.0 3.2 0.03 0.03 0.03 90 1009.3
20260507044530 12 0 0.0 11.3 0.03 0.03 0.03 90 1009.2
20260507044009 12 338 3.2 11.3 0.03 0.03 0.03 88 1009.1
20260507043509 12 91 4.8 11.3 0.03 0.03 0.03 87 1009.1
20260507043035 12 341 1.6 6.4 0.03 0.03 0.03 87 1008.8
20260507042510 12 337 1.6 11.3 0.03 0.03 0.03 85 1008.9
20260507042012 13 358 4.8 11.3 0.03 0.03 0.03 79 1009.1
20260507041532 13 280 4.8 11.3 0.00 0.00 0.00 71 1009.3
20260507041010 14 0 0.0 3.2 0.00 0.00 0.00 68 1009.1
20260507040510 14 293 1.6 4.8 0.00 0.00 0.00 66 1008.8
20260507040029 13 280 1.6 4.8 0.00 0.00 0.00 68 1008.7
20260507035511 13 285 0.0 4.8 0.00 0.00 0.00 67 1008.6
20260507035011 14 0 0.0 3.2 0.00 0.00 0.00 68 1008.6
20260507034530 14 348 0.0 3.2 0.00 0.00 0.00 67 1008.7
20260507034012 14 0 0.0 3.2 0.00 0.00 0.00 65 1008.7
20260507033510 15 0 0.0 3.2 0.00 0.00 0.00 65 1008.6
20260507033029 15 0 0.0 3.2 0.00 0.00 0.00 65 1008.6
20260507032510 15 0 0.0 3.2 0.00 0.00 0.00 66 1008.5
20260507032012 15 0 0.0 3.2 0.00 0.00 0.00 65 1008.5
20260507031528 16 280 0.0 3.2 0.00 0.00 0.00 64 1008.6
20260507031008 16 0 0.0 0.0 0.00 0.00 0.00 66 1008.4
20260507030512 15 0 0.0 0.0 0.00 0.00 0.00 66 1008.6
20260507030032 16 0 0.0 0.0 0.00 0.00 0.00 67 1008.4
20260507025509 16 0 0.0 3.2 0.00 0.00 0.00 61 1008.3
20260507025009 17 0 0.0 3.2 0.00 0.00 0.00 62 1008.3
20260507024528 17 0 0.0 0.0 0.00 0.00 0.00 60 1008.3
20260507024008 17 0 0.0 0.0 0.00 0.00 0.00 56 1008.4
20260507023512 18 0 0.0 0.0 0.00 0.00 0.00 58 1008.6
20260507023031 18 0 0.0 0.0 0.00 0.00 0.00 56 1008.6
20260507022509 18 0 0.0 3.2 0.00 0.00 0.00 55 1008.7
20260507022009 18 0 0.0 4.8 0.00 0.00 0.00 57 1008.7
20260507021530 19 284 0.0 8.0 0.00 0.00 0.00 55 1008.7
20260507021012 20 327 1.6 8.0 0.00 0.00 0.00 44 1008.7
20260507020510 20 190 1.6 8.0 0.00 0.00 0.00 51 1008.7
20260507020033 20 0 0.0 8.0 0.00 0.00 0.00 47 1008.7
20260507015509 20 302 1.6 8.0 0.00 0.00 0.00 50 1008.7
20260507015013 19 288 1.6 8.0 0.00 0.00 0.00 54 1008.7
20260507014528 20 283 1.6 6.4 0.00 0.00 0.00 52 1008.7
20260507014014 20 306 1.6 6.4 0.00 0.00 0.00 51 1008.7
20260507013511 20 328 1.6 6.4 0.00 0.00 0.00 48 1008.7
20260507013036 20 0 0.0 4.8 0.00 0.00 0.00 52 1008.8
20260507012513 20 299 3.2 6.4 0.00 0.00 0.00 52 1008.7
20260507012014 20 0 1.6 9.7 0.00 0.00 0.00 53 1008.6
20260507011538 20 0 1.6 11.3 0.00 0.00 0.00 47 1008.7
20260507011010 21 226 3.2 12.9 0.00 0.00 0.00 45 1008.8
20260507010509 21 261 3.2 12.9 0.00 0.00 0.00 47 1008.8
20260507010032 21 224 1.6 8.0 0.00 0.00 0.00 48 1008.8
20260507005515 21 282 3.2 11.3 0.00 0.00 0.00 47 1008.9
20260507005010 21 300 6.4 11.3 0.00 0.00 0.00 46 1008.9
20260507004531 21 256 3.2 6.4 0.00 0.00 0.00 51 1008.9
20260507004010 21 0 0.0 6.4 0.00 0.00 0.00 49 1009.0
20260507003511 21 316 1.6 11.3 0.00 0.00 0.00 47 1009.1
20260507003029 21 244 3.2 11.3 0.00 0.00 0.00 46 1009.1
20260507002512 21 209 6.4 11.3 0.00 0.00 0.00 46 1009.0
20260507002011 21 266 3.2 9.7 0.00 0.00 0.00 46 1009.1
20260507001533 21 182 3.2 12.9 0.00 0.00 0.00 46 1009.0
20260507001009 21 202 4.8 14.5 0.00 0.00 0.00 45 1009.2
20260507000514 21 155 4.8 14.5 0.00 0.00 0.00 45 1009.1
20260507000030 21 180 4.8 11.3 0.00 0.00 0.00 44 1009.1
20260506235508 21 277 4.8 11.3 0.00 0.00 0.00 44 1009.1
20260506235011 22 226 6.4 11.3 0.00 0.00 0.00 44 1009.1
20260506234536 22 293 4.8 11.3 0.00 0.00 0.00 43 1009.1
20260506234013 22 236 4.8 11.3 0.00 0.00 0.00 45 1009.1
20260506233509 22 248 3.2 8.0 0.00 0.00 0.00 45 1009.1
20260506233029 22 184 3.2 12.9 0.00 0.00 0.00 43 1009.2
20260506232510 21 172 4.8 14.5 0.00 0.00 0.00 45 1009.3
20260506232013 21 165 6.4 17.7 0.00 0.00 0.00 43 1009.2
20260506231535 21 146 4.8 17.7 0.00 0.00 0.00 44 1009.4
20260506231014 22 188 3.2 17.7 0.00 0.00 0.00 42 1009.4
20260506230509 22 192 3.2 14.5 0.00 0.00 0.00 43 1009.5
20260506230030 22 225 3.2 14.5 0.00 0.00 0.00 44 1009.7
20260506225511 22 174 6.4 16.1 0.00 0.00 0.00 40 1009.6
20260506225010 22 158 4.8 16.1 0.00 0.00 0.00 42 1009.6
20260506224530 22 186 4.8 11.3 0.00 0.00 0.00 43 1009.7
20260506224013 22 304 4.8 11.3 0.00 0.00 0.00 42 1009.7
20260506223510 22 248 4.8 14.5 0.00 0.00 0.00 40 1009.8
20260506223031 22 162 4.8 17.7 0.00 0.00 0.00 40 1009.8
20260506222510 22 176 8.0 17.7 0.00 0.00 0.00 39 1009.8
20260506222010 22 148 9.7 20.9 0.00 0.00 0.00 46 1009.7
20260506221529 22 190 9.7 20.9 0.00 0.00 0.00 41 1009.8
20260506221011 22 141 11.3 20.9 0.00 0.00 0.00 40 1009.8
20260506220509 22 188 8.0 19.3 0.00 0.00 0.00 40 1010.1
20260506220030 22 150 9.7 17.7 0.00 0.00 0.00 40 1010.2
20260506215511 22 217 8.0 17.7 0.00 0.00 0.00 37 1010.3
20260506215010 22 93 8.0 17.7 0.00 0.00 0.00 41 1010.4
20260506214529 21 205 6.4 17.7 0.00 0.00 0.00 41 1010.4
20260506214011 21 185 6.4 19.3 0.00 0.00 0.00 40 1010.5
20260506213511 21 230 8.0 19.3 0.00 0.00 0.00 40 1010.5
20260506213028 21 231 6.4 16.1 0.00 0.00 0.00 39 1010.6
20260506212513 21 176 8.0 17.7 0.00 0.00 0.00 42 1010.6
20260506212011 20 323 8.0 22.5 0.00 0.00 0.00 40 1010.7
20260506211529 20 188 6.4 22.5 0.00 0.00 0.00 40 1010.8
20260506211009 20 205 11.3 22.5 0.00 0.00 0.00 41 1010.8
20260506210510 20 181 11.3 20.9 0.00 0.00 0.00 38 1010.8
20260506210027 20 184 4.8 19.3 0.00 0.00 0.00 40 1010.9
20260506205509 20 156 9.7 19.3 0.00 0.00 0.00 37 1010.9
20260506205009 20 291 6.4 19.3 0.00 0.00 0.00 39 1010.9
20260506204533 20 166 6.4 16.1 0.00 0.00 0.00 39 1011.0
20260506204011 20 167 6.4 16.1 0.00 0.00 0.00 38 1011.0
20260506203508 20 185 8.0 16.1 0.00 0.00 0.00 38 1011.1
20260506203043 20 171 6.4 19.3 0.00 0.00 0.00 40 1011.0
20260506202509 20 134 11.3 19.3 0.00 0.00 0.00 38 1011.0
20260506202011 20 244 6.4 17.7 0.00 0.00 0.00 39 1011.2
20260506201528 20 269 6.4 17.7 0.00 0.00 0.00 39 1011.3
20260506201010 20 331 6.4 16.1 0.00 0.00 0.00 40 1011.3
20260506200510 20 141 8.0 16.1 0.00 0.00 0.00 43 1011.3
20260506200044 20 146 6.4 17.7 0.00 0.00 0.00 39 1011.4
20260506195510 19 191 8.0 17.7 0.00 0.00 0.00 36 1011.5
20260506195010 20 183 9.7 19.3 0.00 0.00 0.00 36 1011.7
20260506194531 19 224 6.4 19.3 0.00 0.00 0.00 39 1011.8
20260506194012 19 285 8.0 19.3 0.00 0.00 0.00 35 1011.8
20260506193512 20 217 6.4 19.3 0.00 0.00 0.00 35 1011.9
20260506193028 19 166 6.4 20.9 0.00 0.00 0.00 39 1012.0
20260506192510 19 268 6.4 20.9 0.00 0.00 0.00 36 1012.1
20260506192009 19 207 11.3 20.9 0.00 0.00 0.00 42 1012.3
20260506191530 18 293 4.8 17.7 0.00 0.00 0.00 37 1012.3
20260506191010 18 210 8.0 17.7 0.00 0.00 0.00 37 1012.5
20260506190511 18 199 4.8 17.7 0.00 0.00 0.00 38 1012.5
20260506190036 18 169 8.0 17.7 0.00 0.00 0.00 35 1012.6
20260506185510 18 186 6.4 14.5 0.00 0.00 0.00 40 1012.7
20260506185009 18 199 4.8 14.5 0.00 0.00 0.00 37 1012.8
20260506184531 17 203 8.0 14.5 0.00 0.00 0.00 36 1012.7
20260506184011 17 174 6.4 14.5 0.00 0.00 0.00 41 1012.9
20260506183510 17 246 6.4 16.1 0.00 0.00 0.00 38 1012.8
20260506183028 17 165 8.0 17.7 0.00 0.00 0.00 42 1012.9
20260506182510 17 198 8.0 17.7 0.00 0.00 0.00 36 1013.0
20260506182015 17 266 4.8 12.9 0.00 0.00 0.00 39 1012.9
20260506181528 17 194 6.4 12.9 0.00 0.00 0.00 42 1013.0
20260506181012 16 102 6.4 9.7 0.00 0.00 0.00 43 1013.1
20260506180513 16 135 3.2 9.7 0.00 0.00 0.00 41 1013.0
20260506180028 16 98 1.6 9.7 0.00 0.00 0.00 41 1013.1
20260506175511 15 181 4.8 9.7 0.00 0.00 0.00 42 1013.2
20260506175011 16 88 4.8 8.0 0.00 0.00 0.00 44 1013.2
20260506174528 15 63 3.2 8.0 0.00 0.00 0.00 47 1013.3
20260506174013 15 108 3.2 6.4 0.00 0.00 0.00 43 1013.3
20260506173511 15 113 1.6 6.4 0.00 0.00 0.00 46 1013.4
20260506173039 14 88 3.2 6.4 0.00 0.00 0.00 45 1013.5
20260506172511 15 129 0.0 6.4 0.00 0.00 0.00 47 1013.5
20260506172010 14 145 0.0 6.4 0.00 0.00 0.00 49 1013.7
20260506171534 14 79 3.2 9.7 0.00 0.00 0.00 48 1013.7
20260506171010 13 0 1.6 9.7 0.00 0.00 0.00 47 1013.7
20260506170513 13 181 0.0 4.8 0.00 0.00 0.00 49 1013.9
20260506170028 13 166 1.6 4.8 0.00 0.00 0.00 51 1014.0
20260506165510 12 87 1.6 4.8 0.00 0.00 0.00 49 1014.0
20260506165010 13 0 0.0 6.4 0.00 0.00 0.00 51 1014.1
20260506164530 12 167 1.6 6.4 0.00 0.00 0.00 49 1014.1
20260506164009 12 191 1.6 4.8 0.00 0.00 0.00 52 1014.2
20260506163511 12 117 0.0 4.8 0.00 0.00 0.00 51 1014.2
20260506163042 12 0 0.0 4.8 0.00 0.00 0.00 53 1014.3
20260506162511 12 149 1.6 4.8 0.00 0.00 0.00 55 1014.3
20260506162014 12 135 0.0 3.2 0.00 0.00 0.00 54 1014.2
20260506161528 11 0 0.0 4.8 0.00 0.00 0.00 51 1014.3
20260506161011 11 0 1.6 4.8 0.00 0.00 0.00 56 1014.3
20260506160509 11 0 1.6 4.8 0.00 0.00 0.00 57 1014.3
20260506160032 11 0 0.0 4.8 0.00 0.00 0.00 57 1014.4
20260506155512 11 148 1.6 4.8 0.00 0.00 0.00 59 1014.5
20260506155009 11 0 0.0 3.2 0.00 0.00 0.00 57 1014.6
20260506154537 10 0 0.0 4.8 0.00 0.00 0.00 59 1014.6
20260506154010 10 160 1.6 4.8 0.00 0.00 0.00 61 1014.7
20260506153509 10 0 0.0 0.0 0.00 0.00 0.00 59 1014.7
20260506153032 10 0 0.0 0.0 0.00 0.00 0.00 61 1014.7
20260506152515 10 0 0.0 0.0 0.00 0.00 0.00 63 1014.8
20260506152014 9 0 0.0 0.0 0.00 0.00 0.00 60 1014.9
20260506151538 9 0 0.0 1.6 0.00 0.00 0.00 60 1014.9
20260506151009 9 0 0.0 1.6 0.00 0.00 0.00 61 1015.0
20260506150513 9 0 0.0 4.8 0.00 0.00 0.00 60 1015.0
20260506150028 9 153 1.6 4.8 0.00 0.00 0.00 63 1015.1
20260506145512 9 0 0.0 0.0 0.00 0.00 0.00 63 1015.1
20260506145011 8 0 0.0 0.0 0.00 0.00 0.00 63 1015.1
20260506144529 8 0 0.0 0.0 0.00 0.00 0.00 64 1015.1
20260506144010 8 0 0.0 0.0 0.00 0.00 0.00 66 1015.0
20260506143510 8 0 0.0 0.0 0.00 0.00 0.00 62 1015.0
20260506143032 8 0 0.0 0.0 0.00 0.00 0.00 65 1015.0
20260506142510 8 0 0.0 0.0 0.00 0.00 0.00 68 1015.0
20260506142010 7 0 0.0 0.0 0.00 0.00 0.00 73 1015.0
20260506141529 7 0 0.0 0.0 0.00 0.00 0.00 73 1015.0
20260506141016 6 0 0.0 0.0 0.00 0.00 0.00 76 1015.0
20260506140511 6 0 0.0 0.0 0.00 0.00 0.00 76 1014.9
20260506140033 6 0 0.0 0.0 0.00 0.00 0.00 76 1015.0
20260506135514 5 0 0.0 0.0 0.00 0.00 0.00 78 1015.0